| time (UTC) | temp C | wind direction | speed KPH | gust KPH | rain 1hr cm | rain 24hr cm | rain mn cm | humidity % | barometer mb |
| 20260506184404 | 18 | 266 | 6.4 | 16.1 | 0.00 | 0.00 | 0.00 | 66 | 1018.6 |
| 20260506183904 | 17 | 245 | 8.0 | 19.3 | 0.00 | 0.00 | 0.00 | 67 | 1018.7 |
| 20260506183404 | 17 | 272 | 4.8 | 16.1 | 0.00 | 0.00 | 0.00 | 67 | 1018.7 |
| 20260506182404 | 17 | 266 | 8.0 | 14.5 | 0.00 | 0.00 | 0.00 | 67 | 1018.7 |
| 20260506181905 | 17 | 207 | 8.0 | 16.1 | 0.00 | 0.00 | 0.00 | 67 | 1018.7 |
| 20260506181404 | 17 | 241 | 8.0 | 20.9 | 0.00 | 0.00 | 0.00 | 68 | 1018.7 |
| 20260506180404 | 17 | 249 | 8.0 | 12.9 | 0.00 | 0.00 | 0.00 | 68 | 1018.6 |
| 20260506174904 | 17 | 253 | 8.0 | 12.9 | 0.00 | 0.00 | 0.00 | 69 | 1018.7 |
| 20260506174404 | 17 | 268 | 8.0 | 12.9 | 0.00 | 0.00 | 0.00 | 69 | 1018.7 |
| 20260506173403 | 16 | 230 | 4.8 | 11.3 | 0.00 | 0.00 | 0.00 | 70 | 1018.7 |
| 20260506172904 | 16 | 262 | 8.0 | 16.1 | 0.00 | 0.00 | 0.00 | 70 | 1018.7 |
| 20260506170404 | 16 | 277 | 4.8 | 11.3 | 0.00 | 0.00 | 0.00 | 70 | 1018.9 |
| 20260506165903 | 16 | 261 | 3.2 | 4.8 | 0.00 | 0.00 | 0.00 | 71 | 1018.9 |
| 20260506165404 | 16 | 262 | 4.8 | 11.3 | 0.00 | 0.00 | 0.00 | 71 | 1018.9 |
| 20260506164904 | 16 | 280 | 6.4 | 14.5 | 0.00 | 0.00 | 0.00 | 70 | 1018.9 |
| 20260506164404 | 16 | 244 | 6.4 | 11.3 | 0.00 | 0.00 | 0.00 | 69 | 1018.9 |
| 20260506163904 | 16 | 264 | 6.4 | 9.7 | 0.00 | 0.00 | 0.00 | 70 | 1018.9 |
| 20260506163404 | 16 | 272 | 4.8 | 9.7 | 0.00 | 0.03 | 0.00 | 69 | 1018.9 |
| 20260506162903 | 16 | 272 | 3.2 | 4.8 | 0.00 | 0.03 | 0.00 | 68 | 1018.9 |
| 20260506162404 | 16 | 271 | 3.2 | 4.8 | 0.00 | 0.05 | 0.00 | 68 | 1018.9 |
| 20260506161904 | 16 | 268 | 1.6 | 4.8 | 0.00 | 0.05 | 0.00 | 69 | 1018.9 |
| 20260506161404 | 16 | 267 | 3.2 | 4.8 | 0.00 | 0.05 | 0.00 | 69 | 1018.9 |
| 20260506160404 | 16 | 262 | 1.6 | 4.8 | 0.00 | 0.05 | 0.00 | 71 | 1018.9 |
| 20260506155904 | 15 | 271 | 4.8 | 8.0 | 0.00 | 0.05 | 0.00 | 71 | 1018.9 |
| 20260506155404 | 15 | 292 | 3.2 | 4.8 | 0.00 | 0.05 | 0.00 | 71 | 1018.9 |
| 20260506154904 | 15 | 293 | 1.6 | 4.8 | 0.00 | 0.05 | 0.00 | 71 | 1018.9 |
| 20260506153903 | 15 | 31 | 3.2 | 4.8 | 0.00 | 0.05 | 0.00 | 72 | 1019.0 |
| 20260506153404 | 15 | 59 | 1.6 | 4.8 | 0.00 | 0.05 | 0.00 | 72 | 1019.0 |
| 20260506152904 | 15 | 59 | 0.0 | 3.2 | 0.00 | 0.05 | 0.00 | 72 | 1019.0 |
| 20260506152405 | 15 | 59 | 3.2 | 4.8 | 0.00 | 0.05 | 0.00 | 73 | 1018.9 |
| 20260506151904 | 15 | 60 | 0.0 | 4.8 | 0.00 | 0.05 | 0.00 | 73 | 1018.9 |
| 20260506150904 | 15 | 59 | 0.0 | 3.2 | 0.00 | 0.05 | 0.00 | 73 | 1018.8 |
| 20260506150404 | 15 | 59 | 1.6 | 3.2 | 0.00 | 0.05 | 0.00 | 73 | 1018.8 |
| 20260506145904 | 15 | 59 | 1.6 | 3.2 | 0.00 | 0.05 | 0.00 | 73 | 1018.8 |
| 20260506144904 | 15 | 59 | 0.0 | 4.8 | 0.00 | 0.05 | 0.00 | 73 | 1018.7 |
| 20260506144403 | 15 | 59 | 4.8 | 4.8 | 0.00 | 0.05 | 0.00 | 74 | 1018.7 |
| 20260506143904 | 15 | 61 | 1.6 | 8.0 | 0.00 | 0.05 | 0.00 | 74 | 1018.6 |
| 20260506143404 | 15 | 44 | 0.0 | 3.2 | 0.00 | 0.05 | 0.00 | 74 | 1018.6 |
| 20260506142904 | 15 | 44 | 3.2 | 4.8 | 0.00 | 0.05 | 0.00 | 74 | 1018.6 |
| 20260506142404 | 15 | 44 | 1.6 | 4.8 | 0.00 | 0.05 | 0.00 | 74 | 1018.6 |
| 20260506141904 | 15 | 44 | 0.0 | 4.8 | 0.00 | 0.05 | 0.00 | 74 | 1018.6 |
| 20260506140904 | 14 | 53 | 1.6 | 4.8 | 0.00 | 0.05 | 0.00 | 74 | 1018.5 |
| 20260506140404 | 14 | 55 | 1.6 | 4.8 | 0.00 | 0.05 | 0.00 | 74 | 1018.5 |
| 20260506135404 | 14 | 55 | 3.2 | 4.8 | 0.00 | 0.05 | 0.00 | 74 | 1018.2 |
| 20260506134903 | 14 | 292 | 1.6 | 4.8 | 0.00 | 0.05 | 0.00 | 75 | 1018.2 |
| 20260506134404 | 14 | 282 | 1.6 | 3.2 | 0.00 | 0.05 | 0.00 | 75 | 1018.2 |
| 20260506133404 | 14 | 282 | 1.6 | 3.2 | 0.00 | 0.05 | 0.00 | 75 | 1018.0 |
| 20260506132904 | 14 | 281 | 1.6 | 4.8 | 0.00 | 0.05 | 0.00 | 75 | 1018.0 |
| 20260506132404 | 14 | 281 | 0.0 | 1.6 | 0.00 | 0.05 | 0.00 | 75 | 1018.0 |
| 20260506131403 | 14 | 281 | 1.6 | 3.2 | 0.00 | 0.05 | 0.00 | 75 | 1018.0 |
| 20260506130904 | 14 | 281 | 0.0 | 3.2 | 0.00 | 0.05 | 0.00 | 75 | 1018.0 |
| 20260506130403 | 14 | 280 | 0.0 | 1.6 | 0.00 | 0.05 | 0.00 | 75 | 1018.0 |
| 20260506125904 | 14 | 281 | 1.6 | 4.8 | 0.00 | 0.05 | 0.00 | 75 | 1018.0 |
| 20260506125403 | 14 | 277 | 1.6 | 4.8 | 0.00 | 0.05 | 0.00 | 75 | 1017.7 |
| 20260506124904 | 14 | 277 | 1.6 | 4.8 | 0.00 | 0.05 | 0.00 | 75 | 1017.7 |
| 20260506124403 | 14 | 275 | 0.0 | 3.2 | 0.00 | 0.05 | 0.00 | 75 | 1017.7 |
| 20260506123904 | 14 | 275 | 0.0 | 1.6 | 0.00 | 0.05 | 0.00 | 75 | 1017.7 |
| 20260506123404 | 14 | 275 | 0.0 | 3.2 | 0.00 | 0.05 | 0.00 | 75 | 1017.7 |
| 20260506122904 | 14 | 274 | 0.0 | 1.6 | 0.00 | 0.05 | 0.00 | 75 | 1017.7 |
| 20260506122404 | 14 | 274 | 0.0 | 4.8 | 0.00 | 0.05 | 0.00 | 75 | 1017.6 |
| 20260506121404 | 15 | 271 | 1.6 | 3.2 | 0.00 | 0.05 | 0.00 | 75 | 1017.6 |
| 20260506120904 | 15 | 271 | 0.0 | 1.6 | 0.00 | 0.05 | 0.00 | 75 | 1017.6 |
| 20260506120404 | 14 | 271 | 1.6 | 4.8 | 0.00 | 0.05 | 0.00 | 75 | 1017.6 |
| 20260506115903 | 14 | 263 | 0.0 | 4.8 | 0.00 | 0.05 | 0.00 | 75 | 1017.6 |
| 20260506115403 | 14 | 261 | 0.0 | 4.8 | 0.00 | 0.05 | 0.00 | 75 | 1017.5 |
| 20260506114903 | 14 | 261 | 0.0 | 3.2 | 0.00 | 0.05 | 0.00 | 75 | 1017.5 |
| 20260506114404 | 14 | 259 | 0.0 | 3.2 | 0.00 | 0.05 | 0.00 | 75 | 1017.5 |
| 20260506113904 | 14 | 253 | 0.0 | 1.6 | 0.00 | 0.05 | 0.00 | 75 | 1017.4 |
| 20260506113404 | 15 | 253 | 0.0 | 3.2 | 0.00 | 0.05 | 0.00 | 75 | 1017.4 |
| 20260506112904 | 15 | 253 | 0.0 | 4.8 | 0.00 | 0.05 | 0.00 | 75 | 1017.4 |
| 20260506112404 | 15 | 253 | 3.2 | 8.0 | 0.00 | 0.05 | 0.00 | 76 | 1017.3 |
| 20260506111903 | 15 | 271 | 1.6 | 4.8 | 0.00 | 0.05 | 0.00 | 75 | 1017.3 |
| 20260506111404 | 15 | 271 | 0.0 | 3.2 | 0.00 | 0.05 | 0.00 | 75 | 1017.3 |
| 20260506110904 | 15 | 271 | 0.0 | 4.8 | 0.00 | 0.05 | 0.00 | 75 | 1017.3 |
| 20260506110404 | 15 | 271 | 3.2 | 4.8 | 0.00 | 0.05 | 0.00 | 75 | 1017.3 |
| 20260506105904 | 15 | 267 | 0.0 | 4.8 | 0.00 | 0.05 | 0.00 | 75 | 1017.3 |
| 20260506105404 | 15 | 267 | 3.2 | 4.8 | 0.00 | 0.05 | 0.00 | 75 | 1017.1 |
| 20260506104904 | 15 | 260 | 0.0 | 4.8 | 0.00 | 0.05 | 0.00 | 75 | 1017.1 |
| 20260506104405 | 15 | 260 | 3.2 | 4.8 | 0.00 | 0.05 | 0.00 | 75 | 1017.1 |
| 20260506103404 | 15 | 260 | 0.0 | 0.0 | 0.00 | 0.08 | 0.00 | 75 | 1017.2 |
| 20260506102904 | 15 | 260 | 0.0 | 0.0 | 0.00 | 0.08 | 0.00 | 75 | 1017.2 |
| 20260506101904 | 15 | 259 | 0.0 | 0.0 | 0.00 | 0.08 | 0.00 | 75 | 1017.1 |
| 20260506095905 | 15 | 259 | 0.0 | 0.0 | 0.00 | 0.10 | 0.00 | 75 | 1017.1 |
| 20260506095404 | 15 | 259 | 0.0 | 0.0 | 0.00 | 0.10 | 0.00 | 75 | 1017.0 |
| 20260506094904 | 15 | 259 | 0.0 | 0.0 | 0.00 | 0.10 | 0.00 | 75 | 1017.0 |
| 20260506094403 | 15 | 259 | 0.0 | 0.0 | 0.00 | 0.10 | 0.00 | 75 | 1017.0 |
| 20260506093904 | 15 | 259 | 0.0 | 0.0 | 0.00 | 0.10 | 0.00 | 75 | 1017.0 |
| 20260506093403 | 15 | 259 | 0.0 | 0.0 | 0.00 | 0.10 | 0.00 | 75 | 1017.0 |
| 20260506092904 | 15 | 259 | 0.0 | 0.0 | 0.00 | 0.10 | 0.00 | 75 | 1017.0 |
| 20260506092405 | 15 | 259 | 0.0 | 3.2 | 0.00 | 0.10 | 0.00 | 75 | 1017.2 |
| 20260506091904 | 15 | 259 | 0.0 | 4.8 | 0.00 | 0.10 | 0.00 | 75 | 1017.2 |
| 20260506091403 | 15 | 259 | 1.6 | 4.8 | 0.00 | 0.10 | 0.00 | 75 | 1017.2 |
| 20260506090904 | 15 | 259 | 0.0 | 3.2 | 0.00 | 0.10 | 0.00 | 74 | 1017.1 |
| 20260506090404 | 15 | 259 | 0.0 | 3.2 | 0.00 | 0.10 | 0.00 | 74 | 1017.1 |
| 20260506085903 | 15 | 259 | 0.0 | 4.8 | 0.00 | 0.10 | 0.00 | 74 | 1017.1 |
| 20260506085405 | 15 | 259 | 0.0 | 3.2 | 0.00 | 0.10 | 0.00 | 74 | 1017.1 |
| 20260506084904 | 15 | 259 | 1.6 | 4.8 | 0.00 | 0.10 | 0.00 | 74 | 1017.1 |
| 20260506084404 | 15 | 259 | 1.6 | 4.8 | 0.00 | 0.10 | 0.00 | 74 | 1017.1 |
| 20260506083904 | 15 | 259 | 1.6 | 4.8 | 0.00 | 0.10 | 0.00 | 74 | 1017.3 |
| 20260506083404 | 15 | 258 | 1.6 | 8.0 | 0.00 | 0.10 | 0.00 | 74 | 1017.3 |
| 20260506082904 | 15 | 281 | 1.6 | 4.8 | 0.00 | 0.10 | 0.00 | 74 | 1017.3 |
| 20260506081904 | 15 | 281 | 1.6 | 4.8 | 0.00 | 0.10 | 0.00 | 74 | 1017.3 |
| 20260506081404 | 15 | 277 | 1.6 | 8.0 | 0.00 | 0.10 | 0.00 | 74 | 1017.3 |
| 20260506080904 | 15 | 249 | 3.2 | 8.0 | 0.00 | 0.10 | 0.00 | 74 | 1017.2 |
| 20260506080404 | 15 | 272 | 4.8 | 4.8 | 0.00 | 0.10 | 0.00 | 74 | 1017.2 |
| 20260506073404 | 15 | 264 | 1.6 | 4.8 | 0.00 | 0.10 | 0.00 | 74 | 1016.9 |
| 20260506072904 | 15 | 261 | 4.8 | 4.8 | 0.00 | 0.10 | 0.00 | 74 | 1016.9 |
| 20260506072403 | 15 | 255 | 3.2 | 8.0 | 0.00 | 0.10 | 0.00 | 74 | 1016.9 |
| 20260506071404 | 15 | 250 | 3.2 | 8.0 | 0.00 | 0.10 | 0.00 | 74 | 1016.9 |
| 20260506070904 | 15 | 287 | 4.8 | 4.8 | 0.00 | 0.10 | 0.00 | 74 | 1016.8 |
| 20260506070404 | 15 | 281 | 3.2 | 8.0 | 0.00 | 0.10 | 0.00 | 74 | 1016.8 |
| 20260506061903 | 15 | 257 | 1.6 | 4.8 | 0.00 | 0.10 | 0.10 | 75 | 1016.5 |
| 20260506061403 | 15 | 257 | 1.6 | 8.0 | 0.00 | 0.10 | 0.10 | 75 | 1016.5 |
| 20260506060403 | 15 | 280 | 1.6 | 9.7 | 0.00 | 0.10 | 0.10 | 74 | 1016.5 |
| 20260506051403 | 15 | 280 | 4.8 | 9.7 | 0.00 | 0.10 | 0.10 | 74 | 1016.2 |
| 20260506050404 | 15 | 276 | 4.8 | 14.5 | 0.00 | 0.10 | 0.10 | 74 | 1016.1 |
| 20260506044903 | 15 | 284 | 4.8 | 11.3 | 0.00 | 0.10 | 0.10 | 73 | 1015.9 |
| 20260506044403 | 15 | 282 | 4.8 | 12.9 | 0.00 | 0.10 | 0.10 | 73 | 1015.9 |
| 20260506043903 | 15 | 277 | 4.8 | 8.0 | 0.00 | 0.10 | 0.10 | 73 | 1015.8 |
| 20260506043404 | 15 | 269 | 4.8 | 11.3 | 0.00 | 0.10 | 0.10 | 73 | 1015.8 |
| 20260506042904 | 15 | 269 | 4.8 | 14.5 | 0.00 | 0.10 | 0.10 | 72 | 1015.8 |
| 20260506042404 | 15 | 268 | 8.0 | 16.1 | 0.00 | 0.10 | 0.10 | 72 | 1015.6 |
| 20260506041904 | 15 | 282 | 4.8 | 14.5 | 0.00 | 0.10 | 0.10 | 72 | 1015.6 |
| 20260506040404 | 15 | 238 | 3.2 | 9.7 | 0.00 | 0.10 | 0.10 | 72 | 1015.4 |
| 20260506035904 | 15 | 308 | 6.4 | 12.9 | 0.00 | 0.10 | 0.10 | 72 | 1015.4 |
| 20260506035404 | 15 | 282 | 6.4 | 11.3 | 0.00 | 0.10 | 0.10 | 72 | 1015.2 |
| 20260506034904 | 15 | 275 | 8.0 | 11.3 | 0.00 | 0.10 | 0.10 | 72 | 1015.2 |
| 20260506034404 | 15 | 271 | 8.0 | 11.3 | 0.00 | 0.10 | 0.10 | 72 | 1015.2 |
| 20260506033903 | 15 | 273 | 8.0 | 14.5 | 0.00 | 0.10 | 0.10 | 72 | 1015.0 |
| 20260506033404 | 15 | 269 | 4.8 | 11.3 | 0.00 | 0.10 | 0.10 | 72 | 1015.0 |
| 20260506032903 | 15 | 285 | 4.8 | 11.3 | 0.00 | 0.10 | 0.10 | 72 | 1015.0 |
| 20260506032403 | 15 | 269 | 4.8 | 19.3 | 0.00 | 0.10 | 0.10 | 72 | 1014.8 |
| 20260506031903 | 15 | 272 | 3.2 | 11.3 | 0.00 | 0.10 | 0.10 | 72 | 1014.8 |
| 20260506030404 | 16 | 257 | 4.8 | 19.3 | 0.00 | 0.10 | 0.10 | 72 | 1014.6 |
| 20260506025904 | 16 | 284 | 8.0 | 19.3 | 0.00 | 0.10 | 0.10 | 71 | 1014.6 |
| 20260506025404 | 16 | 282 | 8.0 | 11.3 | 0.00 | 0.10 | 0.10 | 71 | 1014.5 |
| 20260506024404 | 16 | 291 | 6.4 | 16.1 | 0.00 | 0.10 | 0.10 | 71 | 1014.5 |
| 20260506023904 | 16 | 273 | 4.8 | 11.3 | 0.00 | 0.10 | 0.10 | 71 | 1014.4 |
| 20260506023404 | 16 | 282 | 4.8 | 14.5 | 0.00 | 0.10 | 0.10 | 70 | 1014.4 |
| 20260506022904 | 16 | 270 | 8.0 | 20.9 | 0.00 | 0.10 | 0.10 | 70 | 1014.4 |
| 20260506022404 | 16 | 294 | 9.7 | 16.1 | 0.00 | 0.10 | 0.10 | 70 | 1014.3 |
| 20260506021904 | 16 | 278 | 4.8 | 14.5 | 0.00 | 0.10 | 0.10 | 69 | 1014.3 |
| 20260506021404 | 16 | 261 | 3.2 | 9.7 | 0.00 | 0.10 | 0.10 | 69 | 1014.3 |
| 20260506020904 | 16 | 256 | 4.8 | 14.5 | 0.00 | 0.10 | 0.10 | 69 | 1014.2 |
| 20260506020404 | 16 | 278 | 9.7 | 19.3 | 0.00 | 0.10 | 0.10 | 68 | 1014.2 |
| 20260506015904 | 16 | 270 | 6.4 | 19.3 | 0.00 | 0.10 | 0.10 | 68 | 1014.2 |
| 20260506015404 | 16 | 273 | 6.4 | 14.5 | 0.00 | 0.10 | 0.10 | 68 | 1014.2 |
| 20260506014404 | 16 | 276 | 4.8 | 16.1 | 0.00 | 0.10 | 0.10 | 67 | 1014.2 |
| 20260506012904 | 16 | 249 | 4.8 | 14.5 | 0.00 | 0.10 | 0.10 | 67 | 1014.3 |
| 20260506012403 | 16 | 284 | 4.8 | 9.7 | 0.00 | 0.10 | 0.10 | 67 | 1014.2 |
| 20260506010904 | 16 | 265 | 4.8 | 19.3 | 0.00 | 0.10 | 0.10 | 67 | 1014.2 |
| 20260506010404 | 16 | 265 | 6.4 | 19.3 | 0.00 | 0.10 | 0.10 | 66 | 1014.2 |
| 20260506005404 | 17 | 289 | 4.8 | 11.3 | 0.00 | 0.10 | 0.10 | 66 | 1014.1 |
| 20260506004903 | 17 | 271 | 6.4 | 12.9 | 0.00 | 0.10 | 0.10 | 66 | 1014.1 |
| 20260506004404 | 17 | 272 | 6.4 | 12.9 | 0.00 | 0.10 | 0.10 | 65 | 1014.1 |
| 20260506003904 | 17 | 285 | 4.8 | 14.5 | 0.00 | 0.10 | 0.10 | 66 | 1013.9 |
| 20260506003403 | 17 | 296 | 9.7 | 16.1 | 0.00 | 0.10 | 0.10 | 66 | 1013.9 |
| 20260506002904 | 17 | 282 | 9.7 | 14.5 | 0.00 | 0.10 | 0.10 | 65 | 1013.9 |
| 20260506002404 | 17 | 283 | 11.3 | 19.3 | 0.00 | 0.10 | 0.10 | 64 | 1013.8 |
| 20260506001904 | 17 | 278 | 8.0 | 19.3 | 0.00 | 0.10 | 0.10 | 65 | 1013.8 |
| 20260506001404 | 17 | 265 | 9.7 | 19.3 | 0.00 | 0.10 | 0.10 | 66 | 1013.8 |
| 20260506000404 | 17 | 272 | 9.7 | 22.5 | 0.00 | 0.10 | 0.10 | 65 | 1013.8 |
| 20260505235904 | 17 | 274 | 11.3 | 22.5 | 0.00 | 0.10 | 0.10 | 65 | 1013.8 |
| 20260505235404 | 17 | 281 | 11.3 | 19.3 | 0.00 | 0.10 | 0.10 | 65 | 1013.8 |
| 20260505234904 | 17 | 282 | 6.4 | 20.9 | 0.00 | 0.10 | 0.10 | 64 | 1013.8 |
| 20260505234404 | 17 | 274 | 11.3 | 19.3 | 0.00 | 0.10 | 0.10 | 65 | 1013.8 |
| 20260505233904 | 17 | 293 | 6.4 | 16.1 | 0.00 | 0.10 | 0.10 | 64 | 1013.9 |
| 20260505233404 | 17 | 267 | 14.5 | 24.1 | 0.00 | 0.10 | 0.10 | 64 | 1013.9 |
| 20260505232403 | 17 | 301 | 8.0 | 14.5 | 0.00 | 0.10 | 0.10 | 63 | 1013.9 |
| 20260505231904 | 17 | 274 | 3.2 | 16.1 | 0.00 | 0.10 | 0.10 | 64 | 1013.9 |
| 20260505230903 | 17 | 263 | 9.7 | 19.3 | 0.00 | 0.10 | 0.10 | 63 | 1013.9 |
| 20260505230404 | 17 | 280 | 8.0 | 19.3 | 0.00 | 0.10 | 0.10 | 64 | 1013.9 |
| 20260505225904 | 17 | 245 | 8.0 | 19.3 | 0.00 | 0.10 | 0.10 | 64 | 1013.9 |
| 20260505225404 | 17 | 269 | 11.3 | 19.3 | 0.00 | 0.10 | 0.10 | 64 | 1013.9 |
| 20260505224904 | 17 | 287 | 4.8 | 9.7 | 0.00 | 0.10 | 0.10 | 65 | 1013.9 |
| 20260505224404 | 17 | 269 | 8.0 | 16.1 | 0.00 | 0.10 | 0.10 | 65 | 1013.9 |
| 20260505223903 | 17 | 283 | 9.7 | 19.3 | 0.00 | 0.10 | 0.10 | 65 | 1013.9 |
| 20260505223404 | 17 | 257 | 8.0 | 19.3 | 0.00 | 0.10 | 0.10 | 65 | 1013.9 |
| 20260505222904 | 17 | 279 | 8.0 | 19.3 | 0.00 | 0.10 | 0.10 | 65 | 1013.9 |
| 20260505222403 | 17 | 281 | 11.3 | 19.3 | 0.00 | 0.10 | 0.10 | 65 | 1014.1 |
| 20260505221904 | 17 | 279 | 4.8 | 19.3 | 0.00 | 0.10 | 0.10 | 66 | 1014.1 |
| 20260505221404 | 17 | 251 | 8.0 | 20.9 | 0.00 | 0.10 | 0.10 | 65 | 1014.1 |
| 20260505220904 | 17 | 253 | 9.7 | 16.1 | 0.00 | 0.10 | 0.10 | 64 | 1014.1 |
| 20260505220404 | 17 | 271 | 6.4 | 14.5 | 0.00 | 0.10 | 0.10 | 65 | 1014.1 |
| 20260505215903 | 17 | 273 | 11.3 | 19.3 | 0.00 | 0.10 | 0.10 | 64 | 1014.1 |
| 20260505215404 | 17 | 261 | 11.3 | 19.3 | 0.00 | 0.10 | 0.10 | 63 | 1014.2 |
| 20260505213904 | 17 | 250 | 9.7 | 19.3 | 0.00 | 0.10 | 0.10 | 64 | 1014.3 |
| 20260505213403 | 17 | 262 | 6.4 | 14.5 | 0.00 | 0.10 | 0.10 | 65 | 1014.3 |
| 20260505212904 | 17 | 288 | 6.4 | 19.3 | 0.00 | 0.10 | 0.10 | 65 | 1014.3 |
| 20260505212403 | 17 | 274 | 8.0 | 24.1 | 0.00 | 0.10 | 0.10 | 64 | 1014.3 |
| 20260505211404 | 17 | 246 | 6.4 | 16.1 | 0.00 | 0.10 | 0.10 | 64 | 1014.3 |
| 20260505210904 | 17 | 286 | 4.8 | 19.3 | 0.00 | 0.10 | 0.10 | 65 | 1014.3 |
| 20260505210404 | 17 | 268 | 8.0 | 19.3 | 0.00 | 0.10 | 0.10 | 65 | 1014.3 |
| 20260505205904 | 17 | 269 | 8.0 | 22.5 | 0.00 | 0.10 | 0.10 | 65 | 1014.3 |
| 20260505205404 | 17 | 279 | 9.7 | 20.9 | 0.00 | 0.10 | 0.10 | 65 | 1014.3 |
| 20260505204905 | 17 | 298 | 9.7 | 19.3 | 0.00 | 0.10 | 0.10 | 65 | 1014.3 |
| 20260505204404 | 17 | 293 | 14.5 | 22.5 | 0.00 | 0.10 | 0.10 | 64 | 1014.3 |
| 20260505203904 | 17 | 272 | 11.3 | 22.5 | 0.00 | 0.10 | 0.10 | 64 | 1014.3 |
| 20260505203404 | 17 | 266 | 8.0 | 22.5 | 0.00 | 0.10 | 0.10 | 65 | 1014.3 |
| 20260505202904 | 17 | 245 | 12.9 | 20.9 | 0.00 | 0.10 | 0.10 | 64 | 1014.3 |
| 20260505202404 | 17 | 262 | 8.0 | 22.5 | 0.00 | 0.10 | 0.10 | 66 | 1014.3 |
| 20260505201903 | 17 | 277 | 8.0 | 19.3 | 0.00 | 0.10 | 0.10 | 65 | 1014.3 |
| 20260505201404 | 17 | 286 | 6.4 | 20.9 | 0.00 | 0.10 | 0.10 | 67 | 1014.3 |
| 20260505200904 | 16 | 243 | 9.7 | 20.9 | 0.00 | 0.10 | 0.10 | 67 | 1014.4 |
| 20260505200404 | 16 | 265 | 12.9 | 19.3 | 0.00 | 0.10 | 0.10 | 66 | 1014.4 |
| 20260505195404 | 16 | 275 | 11.3 | 19.3 | 0.00 | 0.10 | 0.10 | 67 | 1014.4 |
| 20260505194903 | 16 | 244 | 9.7 | 19.3 | 0.00 | 0.10 | 0.10 | 69 | 1014.4 |
| 20260505194404 | 16 | 250 | 14.5 | 20.9 | 0.00 | 0.10 | 0.10 | 69 | 1014.4 |
| 20260505193903 | 16 | 225 | 14.5 | 19.3 | 0.00 | 0.10 | 0.10 | 69 | 1014.4 |
| 20260505193403 | 16 | 249 | 9.7 | 19.3 | 0.00 | 0.10 | 0.10 | 69 | 1014.4 |
| 20260505192904 | 16 | 259 | 12.9 | 20.9 | 0.00 | 0.10 | 0.10 | 70 | 1014.4 |
| 20260505192404 | 16 | 257 | 9.7 | 19.3 | 0.00 | 0.10 | 0.10 | 70 | 1014.4 |
| 20260505191903 | 16 | 256 | 11.3 | 19.3 | 0.00 | 0.10 | 0.10 | 70 | 1014.4 |
| 20260505191404 | 16 | 269 | 11.3 | 20.9 | 0.00 | 0.10 | 0.10 | 71 | 1014.4 |
| 20260505190904 | 16 | 272 | 9.7 | 19.3 | 0.00 | 0.10 | 0.10 | 72 | 1014.4 |
| 20260505190404 | 16 | 255 | 11.3 | 20.9 | 0.00 | 0.10 | 0.10 | 72 | 1014.4 |
| 20260505185904 | 16 | 263 | 8.0 | 19.3 | 0.00 | 0.10 | 0.10 | 73 | 1014.4 |